Location: ????
(32.1228°N, 34.8377°E)
Time: 03:46:54
(UTC+00:00)

Cosmos 1898 Rocket - Pass Details

Date: 21 September 2020
Orbit: 753 x 784 km, 74.0° (Epoch: 23 October)

Event Time Altitude Azimuth Distance (km) Brightness Sun altitude
Rises 01:58:51 0° 346° (NNW) 3,239 6.8 -19.6°
Reaches altitude 10° 02:01:15 10° 349° (N) 2,315 6.0 -19.1°
Maximum altitude 02:06:29 68° 73° (ENE) 832 3.8 -18.0°
Drops below altitude 10° 02:11:44 10° 156° (SSE) 2,321 6.1 -16.9°
Sets 02:14:08 0° 159° (SSE) 3,249 6.9 -16.4°
